Weather History for Sarasota, FL

Change the Weather History Date:

Saturday, June 15, 2013

  Actual Average Record
Temperature  
Mean Temperature 83 °F 81 °F  
Max Temperature 88 °F 89 °F 96 °F (1991)
Min Temperature 78 °F 73 °F 60 °F (1919)
Degree Days  
Heating Degree Days 0 0  
Month to date heating degree days 0 0  
Since 1 June heating degree days 0 0  
Since 1 July heating degree days 397 477  
Cooling Degree Days 18 16  
Month to date cooling degree days 245 226  
Year to date cooling degree days 1113 977  
Since 1 June cooling degree days 245 226  
Growing Degree Days 32 (Base 50)    
Moisture  
Dew Point 74 °F    
Average Humidity 74    
Maximum Humidity 85    
Minimum Humidity 63    
Precipitation  
Precipitation 0.00 in 0.28 in 2.70 in (1984)
Month to date precipitation 6.39 2.85  
Year to date precipitation 14.53 16.55  
Sea Level Pressure  
Sea Level Pressure 29.99 in    
Wind  
Wind Speed 8 mph (WNW)    
Max Wind Speed 13 mph    
Max Gust Speed 17 mph    
Visibility 10 miles    
Events      
T = Trace of Precipitation, MM = Missing Value Source: NWS Daily Summary

Daily Weather History Graph

Daily Weather History Graph

Search for Another Location

Airport:

Trip Planner

Search our weather history database for the weather conditions in past years. The results will help you decide how hot, cold, wet, or windy it might be!

Date:

Astronomy

Jun. 15, 2013 Rise Set
Actual Time 6:34 AM EDT 8:26 PM EDT
Civil Twilight 6:08 AM EDT 8:53 PM EDT
Nautical Twilight 5:36 AM EDT 9:25 PM EDT
Astronomical Twilight 5:02 AM EDT 9:59 PM EDT
Moon 12:37 PM EDT (6/15) 12:29 AM EDT (6/15)
Length of Visible Light 14h 44m
Length of Day
13h 51m
Waxing Crescent, 39% of the Moon is Illuminated
Jun 15
Waxing Crescent
Jun 16
First Quarter
Jun 23
Full
Jun 30
Last Quarter
Jul 8
New

Hourly Weather History & Observations

Time (EDT) Temp. Heat Index Dew Point Humidity Pressure Visibility Wind Dir Wind Speed Gust Speed Precip Events Conditions
12:53 AM 82.0 °F 87.4 °F 73.0 °F 74% 29.96 in 10.0 mi West 6.9 mph - N/A   Partly Cloudy
1:53 AM 82.0 °F 87.4 °F 73.0 °F 74% 29.94 in 10.0 mi West 11.5 mph - N/A   Clear
2:53 AM 82.0 °F 87.4 °F 73.0 °F 74% 29.94 in 10.0 mi West 10.4 mph - N/A   Mostly Cloudy
3:17 AM 82.4 °F 88.2 °F 73.4 °F 74% 29.93 in 10.0 mi West 10.4 mph - N/A   Scattered Clouds
3:53 AM 82.0 °F 87.4 °F 73.0 °F 74% 29.93 in 10.0 mi West 9.2 mph - N/A   Partly Cloudy
4:32 AM 82.4 °F 88.2 °F 73.4 °F 74% 29.93 in 10.0 mi West 9.2 mph - N/A   Mostly Cloudy
4:40 AM 80.6 °F 85.4 °F 73.4 °F 79% 29.93 in 10.0 mi West 10.4 mph - N/A   Scattered Clouds
4:53 AM 81.0 °F 85.8 °F 73.0 °F 77% 29.93 in 10.0 mi WNW 8.1 mph - N/A   Partly Cloudy
5:53 AM 81.0 °F 85.8 °F 73.0 °F 77% 29.95 in 10.0 mi WNW 6.9 mph - N/A   Clear
6:17 AM 80.6 °F 85.4 °F 73.4 °F 79% 29.96 in 10.0 mi WNW 5.8 mph - N/A   Partly Cloudy
6:53 AM 80.1 °F 84.5 °F 73.9 °F 81% 29.99 in 10.0 mi NNW 5.8 mph - N/A   Mostly Cloudy
7:53 AM 81.0 °F 86.2 °F 73.9 °F 79% 29.98 in 10.0 mi WNW 5.8 mph - N/A   Clear
8:53 AM 82.9 °F 88.8 °F 73.0 °F 72% 30.01 in 10.0 mi West 6.9 mph - N/A   Scattered Clouds
9:53 AM 84.0 °F 91.2 °F 73.9 °F 72% 30.01 in 10.0 mi West 4.6 mph - N/A   Partly Cloudy
10:53 AM 84.9 °F 92.1 °F 73.9 °F 69% 30.03 in 10.0 mi West 8.1 mph - N/A   Scattered Clouds
11:53 AM 86.0 °F 93.8 °F 73.9 °F 67% 30.02 in 10.0 mi West 8.1 mph - N/A   Clear
12:53 PM 86.0 °F 95.1 °F 75.0 °F 70% 30.02 in 10.0 mi West 8.1 mph - N/A   Clear
1:53 PM 87.1 °F 95.4 °F 73.9 °F 65% 30.02 in 10.0 mi West 10.4 mph - N/A   Clear
2:53 PM 87.1 °F 96.3 °F 75.0 °F 67% 30.00 in 10.0 mi West 10.4 mph - N/A   Mostly Cloudy
3:53 PM 87.1 °F 96.3 °F 75.0 °F 67% 29.99 in 10.0 mi West 10.4 mph - N/A   Clear
4:53 PM 87.1 °F 96.3 °F 75.0 °F 67% 29.99 in 10.0 mi West 10.4 mph - N/A   Clear
5:53 PM 87.1 °F 96.3 °F 75.0 °F 67% 29.97 in 10.0 mi WNW 11.5 mph - N/A   Clear
6:53 PM 84.9 °F 92.1 °F 73.9 °F 69% 30.00 in 10.0 mi West 8.1 mph - N/A   Overcast
7:53 PM 82.0 °F 86.7 °F 72.0 °F 71% 30.02 in 10.0 mi Calm Calm - N/A   Mostly Cloudy
8:53 PM 81.0 °F 86.2 °F 73.9 °F 79% 30.01 in 10.0 mi ENE 6.9 mph - N/A   Scattered Clouds
9:53 PM 78.1 °F - 71.1 °F 79% 30.03 in 10.0 mi ENE 5.8 mph - N/A   Overcast
10:53 PM 78.1 °F - 72.0 °F 81% 30.04 in 10.0 mi ENE 3.5 mph - N/A   Mostly Cloudy
11:26 PM 78.8 °F - 73.4 °F 83% 30.04 in 10.0 mi ENE 5.8 mph - N/A   Partly Cloudy
11:53 PM 78.1 °F - 73.9 °F 87% 30.04 in 10.0 mi East 5.8 mph - N/A   Clear